EW4164 Weather Reports


time (UTC)temp
C
wind
direction
speed
KPH
gust
KPH
rain 1hr
cm
rain 24hr
cm
rain mn
cm
humidity
%
barometer
mb
20260510060232 14 5 6.4 11.3 0.00 0.00 0.00 74 1011.7
20260510060036 14 15 4.8 9.7 0.00 0.00 0.00 75 1011.5
20260510060015 14 2 4.8 9.7 0.00 0.00 0.00 75 1012.3
20260510055210 13 25 4.8 8.0 0.00 0.00 0.00 76 1011.8
20260510055038 13 2 4.8 11.3 0.00 0.00 0.00 77 1012.4
20260510054509 13 30 4.8 8.0 0.00 0.00 0.00 77 1011.6
20260510054225 13 16 3.2 8.0 0.00 0.00 0.00 77 1011.8
20260510054017 13 4 3.2 8.0 0.00 0.00 0.00 77 1012.3
20260510053220 13 5 4.8 8.0 0.00 0.00 0.00 77 1011.8
20260510053105 13 15 3.2 8.0 0.00 0.00 0.00 77 1011.5
20260510053018 13 1 4.8 8.0 0.00 0.00 0.00 77 1012.3
20260510052215 13 32 3.2 6.4 0.00 0.00 0.00 77 1011.7
20260510052017 13 12 3.2 4.8 0.00 0.00 0.00 77 1012.3
20260510051610 13 15 1.6 6.4 0.00 0.00 0.00 78 1011.6
20260510051017 13 10 3.2 6.4 0.00 0.00 0.00 77 1012.3
20260510050047 13 5 1.6 6.4 0.00 0.00 0.00 78 1011.5
20260510050037 13 3 3.2 4.8 0.00 0.00 0.00 78 1012.3
20260510045208 13 5 3.2 8.0 0.00 0.00 0.00 78 1011.8
20260510045017 13 11 3.2 8.0 0.00 0.00 0.00 77 1012.4
20260510044533 12 15 3.2 6.4 0.00 0.00 0.00 77 1011.6
20260510044216 13 355 3.2 6.4 0.00 0.00 0.00 77 1011.9
20260510044015 13 12 3.2 4.8 0.00 0.00 0.00 77 1012.4
20260510043224 13 5 3.2 6.4 0.00 0.00 0.00 77 1012.0
20260510043023 12 19 1.6 6.4 0.00 0.00 0.00 77 1011.7
20260510043015 13 3 3.2 6.4 0.00 0.00 0.00 77 1012.5
20260510042226 13 13 3.2 6.4 0.00 0.00 0.00 77 1012.0
20260510042015 13 2 3.2 6.4 0.00 0.00 0.00 76 1012.6
20260510041609 13 351 1.6 6.4 0.00 0.00 0.00 76 1011.8
20260510041214 13 17 3.2 6.4 0.00 0.00 0.00 76 1012.0
20260510041015 13 20 1.6 6.4 0.00 0.00 0.00 76 1012.5
20260510040228 13 28 3.2 6.4 0.00 0.00 0.00 76 1012.0
20260510040015 13 12 3.2 6.4 0.00 0.00 0.00 76 1012.5
20260510040001 13 360 1.6 6.4 0.00 0.00 0.00 76 1011.7
20260510035215 13 0 3.2 6.4 0.00 0.00 0.00 75 1012.0
20260510035035 13 7 3.2 6.4 0.00 0.00 0.00 75 1012.5
20260510034517 13 346 1.6 6.4 0.00 0.00 0.00 75 1011.7
20260510034216 13 15 4.8 6.4 0.00 0.00 0.00 75 1012.0
20260510034017 13 4 4.8 6.4 0.00 0.00 0.00 75 1012.6
20260510033015 13 10 3.2 6.4 0.00 0.00 0.00 75 1012.7
20260510032222 13 19 3.2 8.0 0.00 0.00 0.00 75 1012.2
20260510032017 13 7 3.2 6.4 0.00 0.00 0.00 74 1012.7
20260510031523 13 5 3.2 8.0 0.00 0.00 0.00 74 1011.9
20260510031223 13 26 4.8 12.9 0.00 0.00 0.00 74 1012.2
20260510031037 13 8 4.8 8.0 0.00 0.00 0.00 74 1012.8
20260510030019 13 355 3.2 12.9 0.00 0.00 0.00 74 1012.0
20260510030017 13 4 4.8 12.9 0.00 0.00 0.00 74 1012.8
20260510025219 14 0 3.2 8.0 0.00 0.00 0.00 74 1012.3
20260510025017 14 14 3.2 8.0 0.00 0.00 0.00 73 1012.8
20260510024522 13 25 3.2 8.0 0.00 0.00 0.00 73 1012.0
20260510024214 14 333 3.2 6.4 0.00 0.00 0.00 73 1012.3
20260510024017 14 15 3.2 6.4 0.00 0.00 0.00 73 1012.9
20260510023221 14 29 3.2 6.4 0.00 0.00 0.00 73 1012.3
20260510023059 14 5 3.2 6.4 0.00 0.00 0.00 73 1012.0
20260510023017 14 12 3.2 8.0 0.00 0.00 0.00 73 1012.8
20260510022228 14 5 3.2 6.4 0.00 0.00 0.00 72 1012.3
20260510022015 14 5 3.2 8.0 0.00 0.00 0.00 72 1012.9
20260510021620 14 32 3.2 8.0 0.00 0.00 0.00 72 1012.1
20260510021214 14 349 3.2 8.0 0.00 0.00 0.00 72 1012.4
20260510021017 15 14 3.2 8.0 0.00 0.00 0.00 72 1012.9
20260510020226 15 355 4.8 8.0 0.00 0.00 0.00 72 1012.4
20260510020037 15 10 3.2 8.0 0.00 0.00 0.00 72 1012.9
20260510020009 14 28 3.2 8.0 0.00 0.00 0.00 72 1012.1
20260510015219 14 355 3.2 8.0 0.00 0.00 0.00 73 1012.5
20260510015035 14 6 3.2 8.0 0.00 0.00 0.00 73 1013.0
20260510014546 14 5 1.6 6.4 0.00 0.00 0.00 73 1012.1
20260510014215 14 12 3.2 4.8 0.00 0.00 0.00 73 1012.4
20260510014037 14 10 3.2 6.4 0.00 0.00 0.00 73 1013.1
20260510013243 14 11 1.6 4.8 0.00 0.00 0.00 73 1012.5
20260510013017 14 10 1.6 4.8 0.00 0.00 0.00 73 1013.1
20260510013005 14 24 1.6 4.8 0.00 0.00 0.00 73 1012.3
20260510012220 14 322 3.2 4.8 0.00 0.00 0.00 73 1012.5
20260510012017 15 12 3.2 4.8 0.00 0.00 0.00 73 1013.2
20260510011552 14 5 1.6 4.8 0.00 0.00 0.00 73 1012.3
20260510011221 14 17 1.6 4.8 0.00 0.00 0.00 73 1012.6
20260510011017 15 6 1.6 6.4 0.00 0.00 0.00 73 1013.2
20260510010236 15 36 1.6 4.8 0.00 0.00 0.00 73 1012.7
20260510010056 14 15 0.0 4.8 0.00 0.00 0.00 73 1012.4
20260510010015 14 17 1.6 4.8 0.00 0.00 0.00 73 1013.4
20260510005215 14 32 1.6 4.8 0.00 0.00 0.00 74 1012.8
20260510005017 14 23 1.6 6.4 0.00 0.00 0.00 74 1013.5
20260510004515 14 14 1.6 6.4 0.00 0.00 0.00 74 1012.5
20260510004212 14 5 1.6 3.2 0.00 0.00 0.00 74 1012.9
20260510004017 14 21 1.6 4.8 0.00 0.00 0.00 74 1013.5
20260510003230 14 9 3.2 6.4 0.00 0.00 0.00 74 1012.9
20260510003015 14 17 1.6 3.2 0.00 0.00 0.00 74 1013.7
20260510003003 14 11 0.0 4.8 0.00 0.00 0.00 74 1012.7
20260510002226 14 13 1.6 6.4 0.00 0.00 0.00 75 1013.1
20260510002017 14 11 1.6 6.4 0.00 0.00 0.00 75 1013.9
20260510001545 14 355 0.0 4.8 0.00 0.00 0.00 75 1012.9
20260510001212 14 5 1.6 4.8 0.00 0.00 0.00 75 1013.3
20260510001017 14 10 1.6 3.2 0.00 0.00 0.00 74 1014.0
20260510000212 15 31 1.6 1.6 0.00 0.00 0.00 74 1013.4
20260510000017 15 16 1.6 4.8 0.00 0.00 0.00 73 1014.2
20260510000012 14 5 1.6 4.8 0.00 0.00 0.00 74 1013.1
20260509235221 15 14 1.6 4.8 0.00 0.00 0.00 73 1013.6
20260509235017 15 14 1.6 3.2 0.00 0.00 0.00 73 1014.4
20260509234556 15 14 0.0 4.8 0.00 0.00 0.00 73 1013.4
20260509234212 15 13 3.2 4.8 0.00 0.00 0.00 72 1013.7
20260509234037 15 12 3.2 6.4 0.00 0.00 0.00 72 1014.4
20260509233223 15 13 1.6 4.8 0.00 0.00 0.00 72 1013.8
20260509233035 15 16 1.6 4.8 0.00 0.00 0.00 72 1013.4
20260509233017 15 5 1.6 4.8 0.00 0.00 0.00 72 1014.5
20260509232220 15 11 3.2 6.4 0.00 0.00 0.00 71 1013.8
20260509232037 15 20 3.2 6.4 0.00 0.00 0.00 71 1014.5
20260509231523 15 31 1.6 6.4 0.00 0.00 0.00 71 1013.5
20260509231206 15 63 3.2 6.4 0.00 0.00 0.00 71 1013.8
20260509231017 15 14 3.2 6.4 0.00 0.00 0.00 71 1014.4
20260509230222 15 40 3.2 6.4 0.00 0.00 0.00 70 1013.8
20260509230043 15 23 1.6 6.4 0.00 0.00 0.00 70 1013.5
20260509230017 15 9 3.2 6.4 0.00 0.00 0.00 70 1014.5
20260509225222 15 15 3.2 6.4 0.00 0.00 0.00 70 1013.9
20260509225017 16 16 3.2 6.4 0.00 0.00 0.00 69 1014.6
20260509224536 15 35 1.6 6.4 0.00 0.00 0.00 69 1013.6
20260509224218 16 57 3.2 6.4 0.00 0.00 0.00 69 1014.0
20260509224017 16 15 3.2 4.8 0.00 0.00 0.00 69 1014.7
20260509223230 16 78 3.2 6.4 0.00 0.00 0.00 68 1014.0
20260509223032 16 360 3.2 8.0 0.00 0.00 0.00 68 1013.7
20260509223017 16 14 3.2 8.0 0.00 0.00 0.00 68 1014.7
20260509222233 16 25 3.2 8.0 0.00 0.00 0.00 67 1014.0
20260509222017 16 7 3.2 8.0 0.00 0.00 0.00 67 1014.7
20260509221556 16 13 3.2 8.0 0.00 0.00 0.00 67 1013.7
20260509221220 16 5 3.2 4.8 0.00 0.00 0.00 67 1014.1
20260509221017 16 13 3.2 6.4 0.00 0.00 0.00 66 1014.7
20260509220218 16 15 3.2 6.4 0.00 0.00 0.00 66 1014.1
20260509220018 16 26 1.6 6.4 0.00 0.00 0.00 66 1013.8
20260509215017 16 13 3.2 6.4 0.00 0.00 0.00 65 1014.8
20260509214513 16 355 3.2 6.4 0.00 0.00 0.00 65 1013.9
20260509214230 16 355 3.2 8.0 0.00 0.00 0.00 65 1014.3
20260509214017 16 11 3.2 8.0 0.00 0.00 0.00 65 1014.9
20260509213239 16 343 3.2 8.0 0.00 0.00 0.00 65 1014.3
20260509213050 16 53 4.8 8.0 0.00 0.00 0.00 65 1014.0
20260509213017 16 12 4.8 8.0 0.00 0.00 0.00 64 1015.0
20260509212215 16 5 3.2 4.8 0.00 0.00 0.00 64 1014.4
20260509212037 16 19 3.2 4.8 0.00 0.00 0.00 64 1015.0
20260509211532 16 360 1.6 4.8 0.00 0.00 0.00 64 1014.0
20260509211217 16 17 3.2 6.4 0.00 0.00 0.00 64 1014.4
20260509211017 17 26 1.6 6.4 0.00 0.00 0.00 64 1015.0
20260509210236 16 9 1.6 4.8 0.00 0.00 0.00 64 1014.4
20260509210107 16 5 1.6 6.4 0.00 0.00 0.00 64 1014.0
20260509210017 17 14 1.6 4.8 0.00 0.00 0.00 64 1015.0
20260509205017 17 8 3.2 6.4 0.00 0.00 0.00 63 1014.9
20260509204559 16 14 1.6 6.4 0.00 0.00 0.00 63 1013.9
20260509204227 17 350 1.6 4.8 0.00 0.00 0.00 63 1014.2
20260509204017 17 16 1.6 3.2 0.00 0.00 0.00 63 1014.9
20260509203217 17 21 1.6 6.4 0.00 0.00 0.00 63 1014.2
20260509203025 16 24 0.0 4.8 0.00 0.00 0.00 63 1013.8
20260509203017 17 35 1.6 3.2 0.00 0.00 0.00 63 1014.9
20260509202517 16 13 1.6 4.8 0.00 0.00 0.00 64 1014.9
20260509202220 16 11 1.6 6.4 0.00 0.00 0.00 64 1014.3
20260509201620 16 355 1.6 6.4 0.00 0.00 0.00 64 1013.9
20260509201537 16 18 1.6 4.8 0.00 0.00 0.00 64 1015.0
20260509201221 16 5 1.6 3.2 0.00 0.00 0.00 65 1014.3
20260509201016 16 359 1.6 6.4 0.00 0.00 0.00 65 1015.0
20260509200215 16 9 1.6 4.8 0.00 0.00 0.00 65 1014.2
20260509200051 16 331 0.0 3.2 0.00 0.00 0.00 65 1013.8
20260509200017 16 347 1.6 3.2 0.00 0.00 0.00 65 1014.9
20260509195220 16 30 1.6 3.2 0.00 0.00 0.00 65 1014.2
20260509195017 16 14 1.6 4.8 0.00 0.00 0.00 65 1014.9
20260509194540 16 10 0.0 3.2 0.00 0.00 0.00 65 1013.8
20260509194516 16 35 1.6 3.2 0.00 0.00 0.00 65 1014.8
20260509194219 16 334 0.0 1.6 0.00 0.00 0.00 66 1014.2
20260509194057 16 312 0.0 1.6 0.00 0.00 0.00 66 1014.8
20260509193227 17 312 0.0 1.6 0.00 0.00 0.00 64 1014.1
20260509193049 17 312 0.0 1.6 0.00 0.00 0.00 64 1013.6
20260509193017 17 312 0.0 1.6 0.00 0.00 0.00 63 1014.7
20260509192226 17 311 0.0 1.6 0.00 0.00 0.00 63 1014.0
20260509192017 17 311 0.0 1.6 0.00 0.00 0.00 61 1014.7
20260509191537 17 311 0.0 1.6 0.00 0.00 0.00 61 1013.5
20260509191216 18 311 0.0 1.6 0.00 0.00 0.00 60 1013.9
20260509191017 18 311 0.0 1.6 0.00 0.00 0.00 60 1014.5
20260509190221 19 311 0.0 1.6 0.00 0.00 0.00 59 1013.7
20260509190053 18 311 0.0 1.6 0.00 0.00 0.00 59 1013.3
20260509190037 19 311 0.0 1.6 0.00 0.00 0.00 58 1014.5
20260509185219 20 311 0.0 3.2 0.00 0.00 0.00 57 1013.8
20260509185027 20 0.0 1.6 0.00 0.00 0.00 56 1014.5
20260509184611 20 311 0.0 1.6 0.00 0.00 0.00 56 1013.4
20260509184231 20 355 0.0 3.2 0.00 0.00 0.00 55 1013.9
20260509184037 20 346 1.6 3.2 0.00 0.00 0.00 53 1014.6
20260509183017 21 359 3.2 4.8 0.00 0.00 0.00 51 1014.5
20260509183002 20 360 1.6 4.8 0.00 0.00 0.00 52 1013.2
20260509182037 21 10 1.6 6.4 0.00 0.00 0.00 50 1014.6
20260509181628 21 5 1.6 6.4 0.00 0.00 0.00 50 1013.4
20260509181214 21 5 3.2 6.4 0.00 0.00 0.00 49 1013.8
20260509181017 21 11 3.2 4.8 0.00 0.00 0.00 49 1014.6
20260509180227 21 5 3.2 8.0 0.00 0.00 0.00 49 1013.8
20260509180112 21 360 1.6 6.4 0.00 0.00 0.00 49 1013.3
20260509180017 22 11 3.2 6.4 0.00 0.00 0.00 48 1014.5
20260509175212 22 344 4.8 9.7 0.00 0.00 0.00 48 1013.8
20260509175017 22 9 3.2 9.7 0.00 0.00 0.00 47 1014.5
20260509174548 21 355 3.2 9.7 0.00 0.00 0.00 47 1013.3
20260509174218 22 5 4.8 8.0 0.00 0.00 0.00 47 1013.8
20260509174017 22 19 3.2 11.3 0.00 0.00 0.00 46 1014.5
20260509173230 22 5 4.8 11.3 0.00 0.00 0.00 45 1013.7
20260509173051 22 339 4.8 8.0 0.00 0.00 0.00 45 1013.3
20260509173037 22 9 4.8 8.0 0.00 0.00 0.00 44 1014.5
20260509172222 22 5 4.8 11.3 0.00 0.00 0.00 44 1013.8
20260509172017 22 22 4.8 11.3 0.00 0.00 0.00 43 1014.6
20260509171535 22 9 1.6 9.7 0.00 0.00 0.00 43 1013.3
20260509171017 23 30 3.2 9.7 0.00 0.00 0.00 42 1014.6
20260509170210 23 5 4.8 9.7 0.00 0.00 0.00 43 1013.6
20260509170106 23 333 4.8 9.7 0.00 0.00 0.00 42 1013.2
20260509170017 23 23 4.8 11.3 0.00 0.00 0.00 42 1014.5
20260509165215 23 16 4.8 12.9 0.00 0.00 0.00 44 1013.7
20260509165017 23 13 4.8 11.3 0.00 0.00 0.00 43 1014.6
20260509164549 23 40 4.8 12.9 0.00 0.00 0.00 42 1013.3
20260509164225 23 0 4.8 12.9 0.00 0.00 0.00 42 1013.8
20260509164017 23 3 3.2 9.7 0.00 0.00 0.00 41 1014.7
20260509163039 23 36 6.4 12.9 0.00 0.00 0.00 40 1013.5
20260509163037 23 14 6.4 12.9 0.00 0.00 0.00 40 1014.8
20260509162227 23 21 6.4 12.9 0.00 0.00 0.00 37 1013.9
20260509162017 23 17 6.4 12.9 0.00 0.00 0.00 38 1014.7
20260509161529 23 40 6.4 12.9 0.00 0.00 0.00 39 1013.5
20260509161224 23 14 6.4 12.9 0.00 0.00 0.00 39 1013.9
20260509161017 23 358 6.4 9.7 0.00 0.00 0.00 38 1014.8
20260509160222 23 346 4.8 12.9 0.00 0.00 0.00 37 1014.1
20260509160019 23 11 4.8 12.9 0.00 0.00 0.00 37 1013.7
20260509160017 23 12 4.8 12.9 0.00 0.00 0.00 40 1015.0
20260509155217 23 53 4.8 12.9 0.00 0.00 0.00 39 1014.2
20260509155017 23 8 4.8 8.0 0.00 0.00 0.00 35 1015.1
20260509154509 23 349 3.2 12.9 0.00 0.00 0.00 34 1013.9
20260509154208 23 348 6.4 17.7 0.00 0.00 0.00 39 1014.4
20260509154017 23 9 4.8 12.9 0.00 0.00 0.00 41 1015.3
20260509153213 23 9 4.8 9.7 0.00 0.00 0.00 41 1014.4
20260509153040 23 37 4.8 16.1 0.00 0.00 0.00 38 1014.0
20260509153017 23 22 6.4 16.1 0.00 0.00 0.00 42 1015.2
20260509152213 23 343 4.8 14.5 0.00 0.00 0.00 43 1014.5
20260509152017 23 41 3.2 14.5 0.00 0.00 0.00 42 1015.3
20260509151541 23 100 3.2 14.5 0.00 0.00 0.00 43 1014.2
20260509151224 23 5 4.8 12.9 0.00 0.00 0.00 44 1014.5
20260509151016 23 30 6.4 11.3 0.00 0.00 0.00 44 1015.3
20260509150033 22 40 6.4 12.9 0.00 0.00 0.00 43 1014.3
20260509150017 23 4 6.4 12.9 0.00 0.00 0.00 43 1015.4
20260509145223 23 313 4.8 9.7 0.00 0.00 0.00 45 1014.6
20260509145017 23 8 4.8 9.7 0.00 0.00 0.00 44 1015.4
20260509144545 23 77 4.8 9.7 0.00 0.00 0.00 44 1014.3
20260509144222 23 347 4.8 12.9 0.00 0.00 0.00 45 1014.8
20260509144017 22 26 3.2 9.7 0.00 0.00 0.00 46 1015.5
20260509143209 23 110 6.4 12.9 0.00 0.00 0.00 45 1014.9
20260509143104 22 17 4.8 12.9 0.00 0.00 0.00 45 1014.6
20260509143017 23 14 6.4 12.9 0.00 0.00 0.00 45 1015.6
20260509142239 23 32 4.8 14.5 0.00 0.00 0.00 45 1014.9
20260509142017 23 67 4.8 14.5 0.00 0.00 0.00 45 1015.7
20260509141505 22 58 1.6 14.5 0.00 0.00 0.00 46 1014.7
20260509141036 23 71 3.2 4.8 0.00 0.00 0.00 48 1015.7
20260509140212 22 0 4.8 12.9 0.00 0.00 0.00 48 1015.3
20260509140033 22 49 4.8 16.1 0.00 0.00 0.00 48 1014.9
20260509140017 22 51 4.8 16.1 0.00 0.00 0.00 48 1016.0
20260509135223 22 331 4.8 9.7 0.00 0.00 0.00 51 1015.4
20260509135015 22 62 3.2 11.3 0.00 0.00 0.00 50 1016.0
20260509134523 22 74 3.2 9.7 0.00 0.00 0.00 50 1015.1
20260509134017 22 7 4.8 9.7 0.00 0.00 0.00 52 1016.2
20260509133050 22 5 3.2 12.9 0.00 0.00 0.00 49 1015.3
20260509133017 22 5 6.4 12.9 0.00 0.00 0.00 50 1016.3
20260509132015 22 5 3.2 12.9 0.00 0.00 0.00 53 1016.5
20260509131607 21 5 6.4 16.1 0.00 0.00 0.00 52 1015.4
20260509131217 22 78 6.4 12.9 0.00 0.00 0.00 53 1015.8
20260509131017 22 58 6.4 14.5 0.00 0.00 0.00 52 1016.5
20260509130248 21 24 4.8 14.5 0.00 0.00 0.00 53 1015.9
20260509130044 21 23 4.8 14.5 0.00 0.00 0.00 53 1015.6
20260509130017 21 11 4.8 9.7 0.00 0.00 0.00 53 1016.6
20260509125017 21 16 4.8 12.9 0.00 0.00 0.00 54 1016.7
20260509124514 21 5 6.4 16.1 0.00 0.00 0.00 54 1015.8
20260509124218 21 92 6.4 14.5 0.00 0.00 0.00 54 1016.0
20260509124037 21 11 6.4 16.1 0.00 0.00 0.00 54 1016.8
20260509123026 21 347 6.4 16.1 0.00 0.00 0.00 55 1015.9
20260509123017 21 25 6.4 14.5 0.00 0.00 0.00 55 1016.9
20260509122219 21 323 8.0 17.7 0.00 0.00 0.00 55 1016.2
20260509122017 20 0 8.0 19.3 0.00 0.00 0.00 55 1017.1
20260509121522 20 360 8.0 19.3 0.00 0.00 0.00 55 1016.0
20260509121218 20 350 8.0 12.9 0.00 0.00 0.00 55 1016.4
20260509121015 20 5 9.7 14.5 0.00 0.00 0.00 56 1017.3
20260509120212 20 61 6.4 17.7 0.00 0.00 0.00 54 1016.6
20260509120030 20 53 4.8 12.9 0.00 0.00 0.00 55 1016.4
20260509120017 20 38 6.4 16.1 0.00 0.00 0.00 56 1017.4
20260509115216 20 355 6.4 14.5 0.00 0.00 0.00 58 1016.7
20260509115017 20 10 8.0 17.7 0.00 0.00 0.00 56 1017.5
20260509114520 20 30 4.8 14.5 0.00 0.00 0.00 58 1016.6
20260509114210 20 19 6.4 14.5 0.00 0.00 0.00 56 1016.9
20260509114015 20 19 6.4 12.9 0.00 0.00 0.00 57 1017.8
20260509113227 20 32 6.4 14.5 0.00 0.00 0.00 58 1017.0
20260509113056 20 68 6.4 14.5 0.00 0.00 0.00 58 1016.9
20260509113017 20 36 6.4 14.5 0.00 0.00 0.00 59 1017.9
20260509112220 20 67 6.4 14.5 0.00 0.00 0.00 59 1017.2
20260509112017 20 8 6.4 14.5 0.00 0.00 0.00 59 1018.0
20260509111502 19 351 6.4 14.5 0.00 0.00 0.00 59 1017.0
20260509111215 19 5 6.4 14.5 0.00 0.00 0.00 59 1017.2
20260509111017 20 28 6.4 14.5 0.00 0.00 0.00 59 1018.1
20260509110034 19 55 4.8 14.5 0.00 0.00 0.00 61 1017.2
20260509110017 19 15 6.4 14.5 0.00 0.00 0.00 60 1018.3
20260509105233 19 312 6.4 17.7 0.00 0.00 0.00 60 1017.4
20260509105016 19 5 4.8 17.7 0.00 0.00 0.00 60 1018.3
20260509104553 18 5 4.8 17.7 0.00 0.00 0.00 59 1017.3
20260509104227 19 355 6.4 14.5 0.00 0.00 0.00 59 1017.5
20260509104017 19 359 8.0 16.1 0.00 0.00 0.00 60 1018.4
20260509103230 18 19 6.4 14.5 0.00 0.00 0.00 63 1017.7
20260509103045 18 54 6.4 14.5 0.00 0.00 0.00 61 1017.5
20260509103035 18 60 6.4 14.5 0.00 0.00 0.00 60 1018.5
20260509102017 18 46 4.8 14.5 0.00 0.00 0.00 61 1018.6
20260509101528 18 90 4.8 14.5 0.00 0.00 0.00 60 1017.6
20260509101224 18 25 4.8 12.9 0.00 0.00 0.00 61 1017.8
20260509101017 18 31 6.4 12.9 0.00 0.00 0.00 63 1018.7
20260509100211 18 336 9.7 0.0 0.00 0.00 0.00 62 1017.9
20260509100110 18 24 4.8 12.9 0.00 0.00 0.00 62 1017.7
20260509100017 18 8 6.4 12.9 0.00 0.00 0.00 63 1018.7
20260509095057 18 13 4.8 14.5 0.00 0.00 0.00 64 1018.7
20260509094504 -17 0.0 0.0 0.00 0.00 0.00 1018.1
20260509094035 17 12 4.8 12.9 0.00 0.00 0.00 65 1018.8
20260509093028 -17 0.0 0.0 0.00 0.00 0.00 1018.2
20260509093017 17 19 4.8 12.9 0.00 0.00 0.00 66 1018.9
20260509092037 17 15 8.0 16.1 0.00 0.00 0.00 65 1018.9
20260509091556 -17 0.0 0.0 0.00 0.00 0.00 1018.2
20260509091017 17 8 8.0 16.1 0.00 0.00 0.00 65 1019.0
20260509090107 -17 0.0 0.0 0.00 0.00 0.00 1018.3
20260509090017 17 3 8.0 14.5 0.00 0.00 0.00 65 1019.0
20260509085017 16 2 6.4 12.9 0.00 0.00 0.00 68 1019.0
20260509084504 -17 0.0 0.0 0.00 0.00 0.00 1018.2
20260509084015 16 11 6.4 14.5 0.00 0.00 0.00 67 1019.0
20260509083025 -17 0.0 0.0 0.00 0.00 0.00 1018.3
20260509083017 16 7 6.4 17.7 0.00 0.00 0.00 68 1019.0
20260509082017 16 5 4.8 17.7 0.00 0.00 0.00 68 1019.0
20260509081529 -17 0.0 0.0 0.00 0.00 0.00 1018.4
20260509081017 16 16 6.4 17.7 0.00 0.00 0.00 68 1019.1
20260509080017 15 6 6.4 14.5 0.00 0.00 0.00 69 1019.1
20260509080003 -17 0.0 0.0 0.00 0.00 0.00 1018.5
20260509075017 15 13 4.8 14.5 0.00 0.00 0.00 71 1019.0
20260509074614 -17 0.0 0.0 0.00 0.00 0.00 1018.3
20260509074017 15 11 6.4 16.1 0.00 0.00 0.00 72 1019.0
20260509073048 -17 0.0 0.0 0.00 0.00 0.00 1018.4
20260509073016 14 13 6.4 17.7 0.00 0.00 0.00 72 1019.1
20260509072017 13 8 8.0 16.1 0.00 0.00 0.00 72 1019.1
20260509071555 -17 0.0 0.0 0.00 0.00 0.00 1018.5
20260509071016 13 7 9.7 16.1 0.00 0.00 0.00 72 1019.1
20260509070017 13 3 6.4 16.1 0.00 0.00 0.00 74 1019.0
20260509070012 -17 0.0 0.0 0.00 0.00 0.00 1018.5
20260509065016 13 6 8.0 20.9 0.00 0.00 0.00 75 1019.0
20260509064525 -17 0.0 0.0 0.00 0.00 0.00 1018.4
20260509064015 12 3 9.7 22.5 0.00 0.00 0.00 75 1018.9
20260509063212 12 0.0 0.0 0.00 0.00 0.00 78 1018.5
20260509063041 -17 0.0 0.0 0.00 0.00 0.00 1018.4
20260509063036 12 5 9.7 17.7 0.00 0.00 0.00 76 1018.9
20260509062229 12 0.0 0.0 0.00 0.00 0.00 78 1018.3
20260509062016 12 7 8.0 17.7 0.00 0.00 0.00 77 1018.9
20260509061538 12 21 6.4 17.7 0.00 0.00 0.00 78 1018.2
20260509061017 12 5 9.7 17.7 0.00 0.00 0.00 78 1018.9